Weather History for Peru, IN

Change the Weather History Date:

Monday, January 23, 2012

  Actual Average Record
Temperature  
Mean Temperature 40 °F -  
Max Temperature 48 °F 29 °F 59 °F (1999)
Min Temperature 32 °F 16 °F -4 °F (2014)
Degree Days  
Heating Degree Days 25    
Moisture  
Dew Point 43 °F    
Average Humidity 100    
Maximum Humidity 100    
Minimum Humidity 99    
Precipitation  
Precipitation 0.26 in - - ()
Sea Level Pressure  
Sea Level Pressure 29.62 in    
Wind  
Wind Speed 20 mph (SSW)    
Max Wind Speed 30 mph    
Max Gust Speed 43 mph    
Visibility 8 miles    
Events Rain , Thunderstorm    
Averages and records for this station are not official NWS values.
T = Trace of Precipitation, MM = Missing Value Source: NWS Daily Summary

Daily Weather History Graph

Daily Weather History Graph

Search for Another Location

Airport:

Trip Planner

Search our weather history database for the weather conditions in past years. The results will help you decide how hot, cold, wet, or windy it might be!

Date:

Astronomy

Jan. 23, 2012 Rise Set
Actual Time 8:02 AM EST 5:50 PM EST
Civil Twilight 7:32 AM EST 6:20 PM EST
Nautical Twilight 6:59 AM EST 6:53 PM EST
Astronomical Twilight 6:26 AM EST 7:26 PM EST
Moon 7:57 AM EST (1/23) 6:38 PM EST (1/23)
Length of Visible Light 10h 47m
Length of Day
9h 48m
New Moon, 0% of the Moon is Illuminated
Jan 23
New Moon
Jan 30
First Quarter
Feb 7
Full
Feb 14
Last Quarter
Feb 21
New

Hourly Weather History & Observations

Time (EST) Temp. Windchill Dew Point Humidity Pressure Visibility Wind Dir Wind Speed Gust Speed Precip Events Conditions
12:01 AM 42.8 °F 34.5 °F 42.8 °F 100% 29.62 in 2.0 mi SSE 18.4 mph - N/A   Overcast
12:02 AM 42.8 °F 34.3 °F 42.8 °F 100% 29.62 in 2.0 mi SSE 19.6 mph - N/A   Overcast
12:06 AM 42.8 °F 34.3 °F 42.8 °F 100% 29.62 in 3.0 mi SSE 19.6 mph - N/A   Overcast
12:22 AM 42.8 °F 33.5 °F 42.8 °F 100% 29.60 in 5.0 mi SSE 23.0 mph - N/A   Overcast
12:36 AM 44.6 °F 36.6 °F 44.6 °F 100% 29.59 in 6.0 mi SSE 19.6 mph - N/A   Overcast
12:55 AM 44.8 °F 36.2 °F 44.8 °F 100% 29.55 in 7.0 mi SSE 23.0 mph - N/A   Overcast
12:58 AM 44.6 °F 36.1 °F 44.6 °F 100% 29.56 in 7.0 mi SSE 21.9 mph - N/A   Overcast
1:24 AM 46.4 °F 38.5 °F 46.4 °F 100% 29.54 in 8.0 mi SSE 21.9 mph - N/A Thunderstorm Thunderstorm
1:39 AM 46.4 °F 38.3 °F 46.4 °F 100% 29.53 in 8.0 mi SSE 23.0 mph 29.9 mph N/A   Overcast
1:43 AM 46.4 °F 38.5 °F 46.4 °F 100% 29.52 in 7.0 mi SSE 21.9 mph 27.6 mph N/A Rain , Thunderstorm Light Rain
1:48 AM 46.4 °F 38.5 °F 46.4 °F 100% 29.52 in 7.0 mi SSE 21.9 mph 28.8 mph N/A Rain , Thunderstorm Light Rain
1:55 AM 47.3 °F - 47.3 °F 100% 29.52 in 6.0 mi SSE 19.6 mph 28.8 mph 0.00 in Rain , Thunderstorm Light Rain
2:05 AM 48.2 °F - 48.2 °F 100% 29.56 in 4.0 mi South 18.4 mph 24.2 mph N/A Rain Rain
2:08 AM 48.2 °F - 48.2 °F 100% 29.58 in 2.5 mi SSW 26.5 mph - N/A Rain Rain
2:12 AM 48.2 °F - 48.2 °F 100% 29.59 in 2.5 mi WSW 17.3 mph 32.2 mph N/A Rain Light Rain
2:13 AM 48.2 °F - 48.2 °F 100% 29.58 in 2.5 mi SW 16.1 mph 32.2 mph N/A Rain Light Rain
2:16 AM 48.2 °F - 48.2 °F 100% 29.58 in 3.0 mi SW 16.1 mph 32.2 mph N/A Rain Rain
2:19 AM 48.2 °F - 48.2 °F 100% 29.58 in 5.0 mi SW 13.8 mph 28.8 mph N/A Rain Light Rain
2:23 AM 46.4 °F 39.8 °F 46.4 °F 100% 29.58 in 6.0 mi SW 16.1 mph - N/A Rain Light Rain
2:28 AM 46.4 °F 39.5 °F 46.4 °F 100% 29.60 in 7.0 mi SW 17.3 mph - N/A Rain Light Rain
2:31 AM 46.4 °F 39.5 °F 46.4 °F 100% 29.60 in 7.0 mi SSW 17.3 mph - N/A Rain Light Rain
2:38 AM 46.4 °F 40.1 °F 46.4 °F 100% 29.60 in 8.0 mi SSW 15.0 mph - N/A Rain Light Rain
2:40 AM 46.4 °F 40.1 °F 46.4 °F 100% 29.60 in 9.0 mi SSW 15.0 mph - N/A Rain Light Rain
2:43 AM 46.4 °F 39.8 °F 46.4 °F 100% 29.59 in 10.0 mi SSW 16.1 mph - N/A Rain Light Rain
2:46 AM 46.4 °F 40.1 °F 46.4 °F 100% 29.59 in 10.0 mi SSW 15.0 mph - N/A Rain Light Rain
2:47 AM 46.4 °F 39.8 °F 46.4 °F 100% 29.59 in 10.0 mi SSW 16.1 mph - N/A   Overcast
2:55 AM 45.5 °F 38.9 °F 45.5 °F 100% 29.60 in 10.0 mi SSW 15.0 mph - 0.14 in Rain Light Rain
3:55 AM 45.5 °F 38.9 °F 45.5 °F 100% 29.51 in 10.0 mi SE 15.0 mph - 0.07 in Rain Light Rain
4:13 AM 44.6 °F 37.8 °F 44.6 °F 100% 29.50 in 10.0 mi SSE 15.0 mph - N/A   Scattered Clouds
4:55 AM 44.2 °F 37.3 °F 44.2 °F 100% 29.50 in 10.0 mi SSE 15.0 mph - 0.01 in   Clear
5:55 AM 44.6 °F 37.2 °F 44.6 °F 100% 29.48 in 10.0 mi South 17.3 mph 24.2 mph N/A   Clear
6:55 AM 45.7 °F 38.6 °F 45.7 °F 100% 29.49 in 10.0 mi South 17.3 mph - N/A   Partly Cloudy
7:55 AM 46.6 °F - 46.6 °F 100% 29.49 in 10.0 mi South 17.3 mph 24.2 mph N/A   Scattered Clouds
8:34 AM 48.2 °F - 48.2 °F 100% 29.48 in 10.0 mi South 15.0 mph 25.3 mph N/A   Mostly Cloudy
8:55 AM 47.8 °F - 47.8 °F 100% 29.47 in 10.0 mi South 15.0 mph - N/A   Overcast
9:00 AM 48.2 °F - 48.2 °F 100% 29.47 in 10.0 mi South 15.0 mph - N/A   Overcast
9:11 AM 48.2 °F - 48.2 °F 100% 29.48 in 10.0 mi South 16.1 mph - N/A Rain Light Rain
9:55 AM 47.5 °F - 47.5 °F 100% 29.50 in 10.0 mi SSW 15.0 mph - 0.01 in Rain Light Rain
10:31 AM 48.2 °F - 48.2 °F 100% 29.49 in 5.0 mi WSW 26.5 mph 38.0 mph N/A   Overcast
10:41 AM 46.4 °F 37.5 °F 46.4 °F 100% 29.52 in 10.0 mi WSW 27.6 mph 34.5 mph N/A Rain Light Rain
10:55 AM 44.4 °F 34.9 °F 44.4 °F 100% 29.54 in 10.0 mi WSW 27.6 mph 38.0 mph 0.02 in Rain Light Rain
11:55 AM 39.0 °F 28.5 °F 39.0 °F 100% 29.60 in 10.0 mi WSW 23.0 mph 33.4 mph 0.01 in   Overcast
12:55 PM 36.5 °F 25.4 °F 36.5 °F 100% 29.62 in 10.0 mi WSW 21.9 mph - N/A   Overcast
1:08 PM 35.6 °F 24.0 °F 35.6 °F 100% 29.63 in 9.0 mi WSW 23.0 mph 34.5 mph N/A   Overcast
1:55 PM 34.5 °F 21.5 °F 34.5 °F 100% 29.66 in 7.0 mi WSW 27.6 mph 35.7 mph 0.00 in   Light Drizzle
2:21 PM 33.8 °F 20.8 °F 33.8 °F 100% 29.67 in 9.0 mi West 26.5 mph 36.8 mph N/A   Overcast
2:55 PM 33.8 °F 21.0 °F 33.8 °F 100% 29.69 in 7.0 mi WSW 25.3 mph 36.8 mph 0.00 in   Overcast
3:55 PM 33.8 °F 21.6 °F 33.8 °F 100% 29.72 in 10.0 mi WSW 23.0 mph 34.5 mph N/A   Overcast
4:27 PM 33.8 °F 20.3 °F 33.8 °F 100% 29.73 in 10.0 mi WSW 28.8 mph 36.8 mph N/A   Overcast
4:55 PM 33.6 °F 19.8 °F 33.6 °F 100% 29.76 in 10.0 mi West 29.9 mph 42.6 mph N/A   Overcast
5:23 PM 33.8 °F 21.0 °F 33.8 °F 100% 29.79 in 10.0 mi West 25.3 mph - N/A   Overcast
5:55 PM 33.3 °F 20.1 °F 33.1 °F 99% 29.82 in 10.0 mi WSW 26.5 mph 35.7 mph N/A   Overcast
6:55 PM 33.4 °F 20.8 °F 33.4 °F 100% 29.86 in 10.0 mi West 24.2 mph 33.4 mph N/A   Overcast
7:55 PM 33.1 °F 19.8 °F 33.1 °F 100% 29.89 in 10.0 mi West 26.5 mph 32.2 mph N/A   Overcast
8:55 PM 32.9 °F 20.7 °F 32.9 °F 100% 29.91 in 10.0 mi West 21.9 mph 27.6 mph N/A   Overcast
9:55 PM 33.1 °F 20.3 °F 33.1 °F 100% 29.93 in 10.0 mi West 24.2 mph 32.2 mph N/A   Overcast
10:55 PM 32.7 °F 20.7 °F 32.5 °F 99% 29.94 in 10.0 mi West 20.7 mph 27.6 mph N/A   Overcast
11:55 PM 32.2 °F 19.1 °F 32.0 °F 99% 29.95 in 10.0 mi West 24.2 mph 32.2 mph N/A   Overcast